GW1174 Weather Reports


time (UTC)temp
F
wind
direction
speed
knots
gust
knots
rain 1hr
in
rain 24hr
in
rain mn
in
humidity
%
barometer
mb
20260903182017 67 183 4.3 5.2 0.00 0.20 0.20 51 1085.0
20260903181017 66 187 4.3 5.2 0.00 0.20 0.20 51 1085.8
20260903180017 66 191 4.3 5.2 0.00 0.20 0.20 52 1086.5
20260903175017 65 195 4.3 5.2 0.00 0.20 0.20 52 1087.3
20260903174017 65 199 3.5 4.3 0.00 0.20 0.20 53 1088.1
20260903173017 64 203 3.5 4.3 0.00 0.20 0.20 54 1088.9
20260903172017 64 206 3.5 4.3 0.00 0.20 0.20 54 1089.6
20260903171018 61 90 0.9 2.6 0.02 0.21 0.21 92 1019.2
20260903170017 62 214 3.5 4.3 0.00 0.20 0.20 56 1091.2
20260903165017 62 218 3.5 4.3 0.00 0.20 0.20 56 1091.9
20260903164017 61 222 3.5 4.3 0.00 0.20 0.20 57 1092.7
20260903163017 60 226 3.5 4.3 0.00 0.20 0.20 58 1093.4
20260903162017 59 229 3.5 3.5 0.00 0.20 0.20 58 1094.2
20260903161017 59 233 3.5 3.5 0.00 0.20 0.20 59 1094.9
20260903160037 58 237 2.6 3.5 0.00 0.20 0.20 59 1095.7
20260903155017 57 241 2.6 3.5 0.00 0.20 0.20 60 1096.4
20260903154017 56 244 2.6 3.5 0.00 0.20 0.20 61 1097.1
20260903153017 55 248 2.6 3.5 0.00 0.20 0.20 61 1097.8
20260903152017 55 252 2.6 3.5 0.00 0.20 0.20 62 1098.6
20260903151017 54 255 2.6 3.5 0.00 0.20 0.20 63 1099.3
20260903150017 53 259 2.6 2.6 0.00 0.20 0.20 63 1100.0
20260903145017 52 262 2.6 2.6 0.00 0.20 0.20 64 1100.7
20260903144018 62 270 0.9 2.6 0.06 0.09 0.09 87 1020.2
20260903143019 63 293 2.6 5.2 0.06 0.08 0.08 86 1020.5
20260903143017 50 269 2.6 2.6 0.00 0.20 0.20 65 1102.0
20260903142017 63 225 2.6 3.5 0.06 0.07 0.07 84 1020.5
20260903141018 63 203 2.6 3.5 0.06 0.06 0.06 84 1020.3
20260903140018 63 225 3.5 5.2 0.05 0.05 0.05 82 1020.3
20260903135037 47 282 1.7 2.6 0.00 0.20 0.20 67 1104.7
20260903134038 64 225 2.6 3.5 0.03 0.03 0.03 80 1020.5
20260903133017 45 289 1.7 1.7 0.00 0.20 0.20 68 1105.9
20260903132019 66 225 3.5 7.0 0.01 0.01 0.01 73 1020.8
20260903132017 44 292 1.7 1.7 0.00 0.20 0.20 69 1106.5
20260903131017 68 225 5.2 9.6 0.00 0.00 0.00 70 1020.9
20260903130017 43 298 1.7 1.7 0.00 0.20 0.20 70 1107.7
20260903125037 42 301 1.7 1.7 0.00 0.20 0.20 70 1108.3
20260903125017 70 225 5.2 9.6 0.00 0.00 0.00 61 1020.6
20260903124017 70 203 4.3 8.7 0.00 0.00 0.00 61 1020.4
20260903123017 40 307 0.9 1.7 0.00 0.20 0.20 71 1109.4
20260903122038 71 248 7.8 13.9 0.00 0.00 0.00 60 1020.5
20260903122017 39 309 0.9 1.7 0.00 0.20 0.20 72 1110.0
20260903121018 73 248 7.8 15.6 0.00 0.00 0.00 56 1020.9
20260903120037 73 270 6.1 13.0 0.00 0.00 0.00 58 1020.9
20260903120017 38 315 0.9 1.7 0.00 0.20 0.20 72 1111.0
20260903115037 37 317 0.9 0.9 0.00 0.20 0.20 73 1111.5
20260903114017 37 320 0.9 0.9 0.00 0.20 0.20 73 1112.0
20260903113017 70 270 4.3 8.7 0.00 0.00 0.00 62 1020.9
20260903112037 70 248 5.2 11.3 0.00 0.00 0.00 59 1021.1
20260903112017 35 325 0.9 0.9 0.00 0.20 0.20 74 1113.0
20260903111017 35 327 0.9 0.9 0.00 0.20 0.20 74 1113.4
20260903110037 70 248 6.1 11.3 0.00 0.00 0.00 59 1021.1
20260903110017 34 329 0.9 0.9 0.00 0.20 0.20 75 1113.9
20260903105017 70 270 5.2 11.3 0.00 0.00 0.00 59 1021.1
20260903104017 33 333 0.9 0.9 0.00 0.20 0.20 76 1114.7
20260903103017 33 335 0.9 0.9 0.00 0.20 0.20 76 1115.1
20260903102017 32 337 0.9 0.9 0.00 0.20 0.20 76 1115.5
20260903101017 32 339 0.9 0.9 0.00 0.20 0.20 77 1115.9
20260903100017 32 341 0.9 0.9 0.00 0.20 0.20 77 1116.2
20260903095017 70 315 3.5 7.8 0.00 0.00 0.00 57 1021.4
20260903094017 71 248 5.2 8.7 0.00 0.00 0.00 54 1021.3
20260903093017 71 203 3.5 7.8 0.00 0.00 0.00 57 1021.4
20260903092017 31 347 0.0 0.0 0.00 0.20 0.20 78 1117.5
20260903091017 30 349 0.0 0.0 0.00 0.20 0.20 78 1117.8
20260903090017 30 350 0.0 0.0 0.00 0.20 0.20 78 1118.0
20260903085017 30 351 0.0 0.0 0.00 0.20 0.20 79 1118.3
20260903084017 68 248 3.5 7.8 0.00 0.00 0.00 62 1021.8
20260903083017 30 354 0.0 0.0 0.00 0.20 0.20 79 1118.7
20260903082037 30 355 0.0 0.0 0.00 0.20 0.20 79 1118.9
20260903081017 68 180 1.7 8.7 0.00 0.00 0.00 67 1021.3
20260903080017 67 158 3.5 6.1 0.00 0.00 0.00 67 1021.3
20260903075017 30 357 0.0 0.0 0.00 0.20 0.20 80 1119.4
20260903074017 30 358 0.0 0.0 0.00 0.20 0.20 80 1119.5
20260903073017 31 358 0.0 0.0 0.00 0.20 0.20 80 1119.7
20260903072017 31 359 0.0 0.0 0.00 0.20 0.20 80 1119.8
20260903071017 31 359 0.0 0.0 0.00 0.20 0.20 80 1119.8
20260903070017 58 0.0 0.0 0.00 0.00 0.00 92 1021.3
20260903065057 32 360 0.0 0.0 0.00 0.20 0.20 80 1119.9
20260903065037 56 0.0 0.0 0.00 0.00 0.00 92 1021.5
20260903064017 55 0.0 0.0 0.00 0.00 0.00 92 1021.6
20260903063017 33 360 0.0 0.0 0.00 0.20 0.20 80 1120.0
20260903062016 52 0.0 0.0 0.00 0.00 0.00 92 1021.6
20260903061017 34 360 0.0 0.0 0.00 0.20 0.20 80 1120.0
20260903060038 34 360 0.0 0.0 0.00 0.20 0.20 80 1119.9
20260903055017 35 359 0.0 0.0 0.00 0.20 0.20 80 1119.9
20260903054017 50 0.0 0.0 0.00 0.00 0.00 92 1021.2
20260903053017 36 359 0.0 0.0 0.00 0.20 0.20 80 1119.7
20260903052057 36 358 0.0 0.0 0.00 0.20 0.20 80 1119.6
20260903051017 50 0.0 0.0 0.00 0.00 0.00 91 1021.1
20260903050017 38 357 0.0 0.0 0.00 0.20 0.20 79 1119.3
20260903045017 38 356 0.0 0.0 0.00 0.20 0.20 79 1119.2
20260903044016 39 355 0.0 0.0 0.00 0.20 0.20 79 1119.0
20260903043017 40 354 0.0 0.0 0.00 0.20 0.20 79 1118.8
20260903042037 41 353 0.0 0.0 0.00 0.20 0.20 79 1118.6
20260903041018 50 0.0 0.0 0.00 0.00 0.00 91 1021.0
20260903040017 42 351 0.0 0.0 0.00 0.20 0.20 78 1118.2
20260903035017 43 349 0.0 0.0 0.00 0.20 0.20 78 1117.9
20260903034017 44 348 0.0 0.0 0.00 0.20 0.20 78 1117.6
20260903033016 52 0.0 0.0 0.00 0.00 0.00 91 1021.1
20260903032017 45 345 0.0 0.9 0.00 0.20 0.20 78 1117.0
20260903031017 46 344 0.0 0.9 0.00 0.20 0.20 77 1116.7
20260903030017 47 342 0.9 0.9 0.00 0.20 0.20 77 1116.4
20260903025017 48 340 0.9 0.9 0.00 0.20 0.20 77 1116.1
20260903024037 49 338 0.9 0.9 0.00 0.20 0.20 76 1115.7
20260903023017 50 336 0.9 0.9 0.00 0.20 0.20 76 1115.3
20260903022016 51 334 0.9 0.9 0.00 0.20 0.20 76 1114.9
20260903021037 52 332 0.9 0.9 0.00 0.20 0.20 75 1114.5
20260903020017 52 330 0.9 0.9 0.00 0.20 0.20 75 1114.1
20260903015017 53 328 0.9 0.9 0.01 0.20 0.20 75 1113.7
20260903014016 56 0.0 0.0 0.00 0.00 0.00 89 1021.5
20260903013017 55 323 0.9 0.9 0.03 0.20 0.20 74 1112.7
20260903012017 56 321 0.9 0.9 0.04 0.20 0.20 73 1112.3
20260903011019 57 0.0 0.0 0.00 0.00 0.00 88 1021.5
20260903011017 57 318 0.9 0.9 0.05 0.20 0.20 73 1111.8
20260903010017 57 316 0.9 0.9 0.06 0.20 0.20 73 1111.3
20260903005017 58 313 0.9 1.7 0.06 0.20 0.19 72 1110.8
20260903004037 59 311 0.9 1.7 0.06 0.20 0.18 72 1110.2
20260903003017 60 308 0.9 1.7 0.07 0.20 0.17 71 1109.7
20260903002017 61 305 1.7 1.7 0.07 0.20 0.16 71 1109.1
20260903001017 61 302 1.7 1.7 0.07 0.20 0.15 70 1108.6
20260903000037 62 299 1.7 1.7 0.07 0.20 0.14 70 1108.0
20260902235037 63 296 1.7 1.7 0.07 0.20 0.13 69 1107.4
20260902234017 63 293 1.7 1.7 0.07 0.20 0.12 69 1106.8
20260902233016 58 0.0 0.9 0.00 0.00 0.00 87 1021.6
20260902232018 58 0.0 0.9 0.00 0.00 0.00 87 1021.7
20260902231038 58 0.0 0.9 0.00 0.00 0.00 87 1021.7
20260902230018 58 0.0 0.0 0.00 0.00 0.00 87 1021.6
20260902225018 58 0.0 0.0 0.00 0.00 0.00 86 1021.5
20260902224018 59 0.0 0.0 0.00 0.00 0.00 86 1021.5
20260902223018 59 0.0 0.0 0.00 0.00 0.00 86 1021.6
20260902222017 68 267 2.6 2.6 0.03 0.20 0.03 65 1101.7
20260902221017 68 264 2.6 2.6 0.02 0.20 0.02 64 1101.0
20260902220018 58 0.0 0.0 0.00 0.00 0.00 85 1021.5
20260902215037 69 257 2.6 2.6 0.00 0.20 0.20 63 1099.6
20260902214017 58 0.0 0.0 0.00 0.00 0.00 85 1021.5
20260902213017 69 250 2.6 3.5 0.00 0.20 0.20 62 1098.2
20260902212037 69 246 2.6 3.5 0.00 0.20 0.20 61 1097.5
20260902211017 70 242 2.6 3.5 0.00 0.20 0.20 60 1096.7
20260902210017 70 239 2.6 3.5 0.00 0.20 0.20 60 1096.0
20260902205017 70 235 2.6 3.5 0.00 0.20 0.20 59 1095.3
20260902204016 70 231 3.5 3.5 0.00 0.20 0.20 59 1094.5
20260902203037 70 227 3.5 3.5 0.00 0.20 0.20 58 1093.8
20260902202017 70 224 3.5 4.3 0.00 0.20 0.20 57 1093.0
20260902201017 70 220 3.5 4.3 0.00 0.20 0.20 57 1092.3
20260902200017 70 216 3.5 4.3 0.00 0.20 0.20 56 1091.5
20260902195018 62 0.0 0.0 0.00 0.00 0.00 78 1020.9
20260902194037 70 208 3.5 4.3 0.00 0.20 0.20 55 1090.0
20260902193017 69 204 3.5 4.3 0.00 0.20 0.20 54 1089.2
20260902192017 69 201 3.5 4.3 0.00 0.20 0.20 53 1088.4
20260902191017 69 197 4.3 4.3 0.00 0.20 0.20 53 1087.7
20260902190037 69 193 4.3 5.2 0.00 0.20 0.20 52 1086.9
20260902185037 68 189 4.3 5.2 0.00 0.20 0.20 51 1086.1
20260902184037 68 185 4.3 5.2 0.00 0.20 0.20 51 1085.3
20260902183017 67 181 4.3 5.2 0.00 0.20 0.20 50 1084.6